Tracking 21606 objects as of 24-Oct-2020
HD Live streaming from Space Station
objects crossing your sky now

INMARSAT 4-F2

Track INMARSAT 4-F2 now!
INMARSAT 4-F2 is classified as:


NORAD ID: 28899
Int'l Code: 2005-044A
Perigee: 35,781.7 km
Apogee: 35,805.6 km
Inclination: 3.1 °
Period: 1,436.1 minutes
Semi major axis: 42164 km
RCS: 4.4668 m2 (large)
Launch date: November 8, 2005
Source: International Mobile Satellite Organization (INMARSAT) (IM)
Launch site: SEA LAUNCH (SEAL)

Nearly the size of a double-decker bus; more than 600 channels.
aabbcc
Your satellite tracking list
Your tracking list is empty




NASA's NSSDC Master Catalog

Two Line Element Set (TLE):
1 28899U 05044A   20298.13063743 -.00000003 +00000-0 +00000-0 0  9991
2 28899 003.0975 031.1478 0002837 181.3730 291.4144 01.00272245054848
Source of the keplerian elements: AFSPC